Showing default

ORBCOMM FM 114, 41179

Orbit data source: Space-Track

ORBCOMM FM 114, 41179 is a payload satellite owned by Orbcomm (US) in LEO that was launched on Tue, 22 Dec 2015 UTC via an FALCON 9 launch vehicle from the Air Force Eastern Test Range (AFETR). Payload-class satellites include a variety of spacecraft equipped with specific instruments for various scientific and technological missions. These include communications satellites like Starlink; space stations such as the ISS; scientific satellites like the Hubble; Earth observation satellites from companies like Planet Labs, Umbra, and HawkEye 360; GPS; miniature CubeSats for education and research; and military/defense satellites.

Loading next visibility...
Identifier
41179, 2015-081A
Orbit
LEO
Last TLE update
18 hours ago
Origin
Manufacturer
SNC Louisville
Mission
Operational Commercial Communications
Bus & Motor
SN-100A, Unknown motor
Mass
172 kg wet, 158 kg dry
Launch date (UTC)
2015-12-22 (10 years ago)
Launch vehicle
FALCON 9
Launch site
Air Force Eastern Test Range (AFETR)
Object type
Payload
Rocket body
Debris
Shape & HBR
Box + 1 Pan + 1 Ant, 13 m
Radar Cross Section
2.222 m², Medium (>0.1 m² and < 1m²)

Expand to show TLE details & history

TLE from 18 hours ago
0 ORBCOMM FM 114
1 41179U 15081A   25182.11674011  .00000172  00000-0  73413-4 0  9998
2 41179  47.0012 221.0600 0001358  22.8272 337.2673 14.58225307506503
Epoch: 2025-07-01T02:48Z
TLE epoch observation values (Epoch: 2025-07-01T02:48:06.345Z)
Latitude
-0.00007°
Longitude
-100.38331°
Altitude
698.239 km
Speed
7.509 km/s
True Right ascension
14h 44m 14s
True Declination
0° 00' 00"
Sunlit
Object was in full shadow at epoch
Visualization orbit readout
Latitude
46.93748°
Longitude
-21.08517°
Altitude
702.903 km
Speed
7.511 km/s
Apparent Right ascension
20h 29m 21s
Apparent Declination
6° 22' 16"
Sunlit
Object is in daylight
Visualization observer readout
Local Sidereal Time
08:56:57
Azimuth
9.439° NNE
Elevation
-43.277°
Doppler factor
1
Orbital elements
Apogee altitude
701.106 km
Perigee altitude
699.183 km
Semi-major axis
7,078.282 km
Eccentricity
0.00014
Inclination
47.0012°
RAAN
221.06°
Arg. of periapsis
22.8272°
True anomaly
Unknown
Mean anomaly
337.2673°
Eccentric anomaly
Unknown
Mean motion
3.64461 °/min
Orbital period
98.78 mins
BSTAR
0.000073413
Loading maneuver chart data...
Loading SW <> Apogee altitude chart data...
Loading historical data...
Loading historical data...
Loading historical data...
Loading historical data...
Loading historical data...
Loading historical data...
Loading historical data...

ORBCOMM FM 114 Visibility forecast

Observer location: undefined°, undefined°

Span
Click to sort rows by Start time (UTC) header in descending order
Start Az.
Max El. time (UTC)
Max El. Az.
Max El.
End time (UTC)
End Az.
9 mins2025-07-02 05:16:43.400Z218.966° SW2025-07-02 05:21:43.400Z133.828° SE37.778°2025-07-02 05:25:43.400Z70.87° E
8 mins2025-07-02 07:01:43.400Z271.849° WNW2025-07-02 07:04:43.400Z326.91° NNW37.525°2025-07-02 07:09:43.400Z57.862° ENE
8 mins2025-07-02 08:45:43.400Z301.118° NW2025-07-02 08:49:43.400Z14.68° NNE30.159°2025-07-02 08:53:43.400Z68.73° E
8 mins2025-07-02 10:29:43.400Z304.674° NW2025-07-02 10:33:43.400Z42.636° NE40.762°2025-07-02 10:37:43.400Z101.516° ESE
7 mins2025-07-02 12:13:43.400Z276.742° WNW2025-07-02 12:16:43.400Z220.892° SW31.484°2025-07-02 12:20:43.400Z155.499° SSE
|